GEFSMW_con_maxscp_192.txt.gz
SCP
4 4 4 4 3 3 3 2 2 2 1 1 1 1 1 1 1 1 1 1 1 1 1 1 1 1 1 1 0 0 0 0 0 0 0 0 0 0 0 0 0 0 0
4 4 4 3 3 3 2 2 2 2 2 2 1 1 1 1 1 1 1 1 1 1 1 1 1 1 1 1 0 0 0 0 0 0 0 0 0 0 0 0 0 0 0
3 3 3 3 2 2 2 2 2 3 3 2 2 2 2 2 1 1 1 1 1 1 1 1 1 1 1 1 0 0 0 1 1 1 1 0 0 0 0 0 0 0 0
1 1 2 2 2 2 2 2 2 2 3 3 2 2 2 2 2 1 1 1 1 1 1 1 1 1 1 1 1 1 1 1 1 1 1 1 0 0 0 0 0 0 0
1 1 1 1 2 2 2 2 2 2 2 2 2 2 2 2 2 1 1 1 1 1 1 1 1 1 1 1 1 1 1 1 1 1 1 1 1 0 0 0 0 0 0
2 2 2 2 3 2 2 2 2 2 2 2 2 2 2 2 2 1 1 1 1 1 1 1 1 1 1 1 1 0 0 0 0 0 0 0 1 1 0 0 0 0 0
2 3 4 4 3 2 2 2 2 2 2 3 3 2 2 2 2 2 1 1 1 1 1 1 1 1 1 1 1 0 0 0 0 0 0 0 0 0 0 0 0 0 0
3 4 5 5 3 2 2 3 3 3 3 3 3 3 2 2 2 2 2 1 2 1 1 1 1 1 1 1 1 1 0 0 0 0 0 0 0 0 0 0 0 0 0
3 4 4 4 3 2 2 3 3 3 3 3 3 3 2 2 2 2 2 1 2 1 1 1 1 1 1 1 1 1 0 0 0 0 0 0 0 0 0 1 1 1 0
3 3 3 3 3 2 2 3 3 3 3 3 3 2 2 2 2 2 1 1 1 1 1 1 1 1 1 1 1 1 1 0 0 0 0 0 0 0 1 1 1 1 1
3 4 4 3 3 2 2 2 3 3 3 2 2 2 2 2 1 1 1 1 1 1 1 1 1 1 1 1 1 1 1 1 1 1 1 1 1 1 1 1 1 1 1
4 5 5 4 3 3 2 2 3 3 3 3 2 2 2 1 1 1 1 1 1 1 1 1 1 1 1 1 1 1 1 1 1 1 1 1 1 1 1 1 1 1 1
4 4 4 4 3 3 3 3 3 3 3 3 2 2 2 1 1 1 1 1 1 1 1 1 1 1 2 1 1 1 1 1 2 2 2 2 2 1 1 1 1 1 1
3 3 3 3 3 3 3 3 3 3 3 2 2 2 2 1 1 1 1 1 1 1 1 1 1 1 2 2 1 1 2 2 2 2 2 2 2 2 1 1 1 1 1
2 2 2 2 2 3 4 4 4 3 2 2 2 2 2 2 1 1 1 1 1 1 1 1 1 1 1 1 1 1 2 2 2 2 2 2 2 1 1 1 1 1 1
2 2 2 2 2 3 4 5 4 3 3 3 3 2 2 2 1 1 1 1 1 1 1 1 1 1 1 1 0 1 1 1 1 1 1 1 1 1 1 0 0 0 0
3 3 3 3 3 3 4 4 3 3 3 4 3 3 2 2 1 1 1 1 1 1 1 1 1 1 0 0 0 0 0 0 0 0 0 0 0 0 0 0 0 0 0
3 3 4 4 4 4 4 4 3 3 4 4 4 3 3 2 2 2 2 2 1 1 1 0 0 0 0 0 0 0 0 0 0 0 0 0 0 0 0 0 0 0 0
3 3 3 4 4 4 4 4 4 4 4 4 3 3 3 3 2 2 2 2 1 1 0 0 0 0 0 0 0 0 0 0 0 0 0 0 0 0 0 0 0 0 0
3 3 3 3 4 5 6 5 4 4 4 3 3 3 3 3 2 2 2 1 1 0 0 0 0 0 0 0 0 0 0 0 0 0 0 0 0 0 0 0 0 0 0
3 3 3 3 4 6 6 6 5 4 4 3 3 3 3 2 2 1 1 1 1 0 0 0 0 0 0 0 0 0 0 0 0 0 0 0 0 0 0 0 0 0 0
4 4 3 3 4 5 6 6 5 4 4 3 3 3 2 2 2 1 1 1 1 0 0 0 0 0 0 0 0 0 0 0 0 0 0 0 0 0 0 0 0 0 0
5 5 5 4 4 4 5 5 5 4 4 4 3 2 2 2 2 2 2 1 1 1 0 0 0 0 0 0 0 0 0 0 0 0 0 0 0 0 0 0 0 0 0
5 5 6 5 5 5 5 5 5 4 4 3 2 2 1 2 2 2 2 1 1 1 1 0 0 0 0 0 0 0 0 0 0 0 0 0 0 0 0 0 0 0 0
4 5 5 5 5 4 4 4 4 4 3 3 2 1 1 1 1 1 1 1 1 1 1 0 0 0 0 0 0 0 0 0 0 0 0 0 0 0 0 0 0 0 0
4 4 5 5 4 4 3 3 3 3 3 2 1 1 0 0 0 0 0 0 0 0 0 0 0 0 0 0 0 0 0 0 0 0 0 0 0 0 0 0 0 0 0

GEFSMW_con_maxscp_198.txt.gz
SCP
4 3 2 1 2 3 4 3 3 3 3 2 2 2 2 2 2 2 3 3 2 1 1 2 2 2 3 2 2 1 1 1 1 1 1 1 1 1 1 1 1 1 1
4 3 2 1 2 2 3 3 3 3 3 2 2 2 2 2 2 2 2 2 2 1 1 2 2 2 3 2 2 1 1 1 1 1 1 1 1 1 1 1 1 1 1
3 2 1 1 1 2 2 2 3 3 3 2 2 2 2 2 2 2 2 2 2 2 2 2 2 2 2 2 2 1 2 2 2 2 2 1 1 1 1 1 1 1 1
2 1 1 1 1 1 2 2 3 3 3 3 2 2 2 2 2 2 2 2 2 2 2 2 2 2 2 2 2 1 2 2 2 2 2 1 1 1 1 1 1 1 1
1 1 1 1 1 1 2 2 3 3 3 3 3 3 3 3 2 2 2 2 2 2 2 2 2 2 2 2 2 1 1 2 2 2 2 2 1 1 1 1 1 1 1
1 1 1 1 1 2 2 3 3 4 4 3 3 4 4 3 3 2 2 2 2 2 2 2 3 3 3 2 2 1 1 1 1 1 1 1 2 2 2 1 1 1 1
2 1 1 2 2 2 3 4 4 5 4 4 4 4 4 3 3 3 2 2 2 1 2 2 3 3 3 3 2 2 1 1 1 1 1 1 2 2 2 2 2 2 2
2 2 1 2 3 3 4 5 5 5 5 5 5 4 3 3 3 2 2 2 2 2 2 3 3 4 3 2 2 2 2 1 1 1 1 1 2 3 3 3 2 2 2
2 2 2 3 4 5 5 6 5 5 4 4 4 4 3 2 2 2 2 2 2 2 2 3 3 3 3 2 2 2 2 2 1 1 1 2 2 3 3 3 2 2 1
2 2 3 5 6 7 7 6 5 4 4 4 3 3 3 2 2 2 2 2 2 2 2 2 3 3 2 2 2 2 2 2 1 2 2 2 2 3 3 3 2 2 2
3 4 5 7 8 7 6 5 4 4 3 3 3 3 3 2 2 2 2 2 2 2 2 2 2 2 2 2 2 2 2 2 2 2 2 2 3 3 3 3 2 2 2
4 5 6 7 6 5 4 4 4 3 3 3 3 3 3 3 3 2 2 2 2 3 3 3 3 2 2 2 2 2 1 2 2 1 2 2 2 3 3 3 3 2 2
4 5 5 5 4 4 3 3 3 3 3 3 3 3 3 3 3 3 3 3 3 3 4 4 3 2 2 2 2 1 1 2 2 1 1 1 2 2 2 2 2 2 1
4 4 4 4 4 4 4 3 4 4 4 4 3 3 3 3 3 3 3 3 4 4 4 4 4 3 2 2 2 2 2 2 2 2 1 1 1 1 1 1 1 1 1
3 3 3 4 4 4 4 4 5 5 5 4 3 3 3 3 3 4 3 3 4 4 5 5 4 3 3 2 2 2 2 2 2 2 2 1 1 1 1 1 1 1 1
3 3 4 4 5 5 5 6 6 6 5 4 4 4 4 4 5 5 4 3 3 4 5 5 5 4 3 2 1 1 1 2 2 2 2 1 1 1 0 0 0 1 1
3 3 4 5 7 8 9 9 9 7 6 5 4 4 4 5 5 5 4 4 4 4 5 5 4 3 2 1 1 1 1 1 2 2 2 1 1 1 0 0 0 0 0
4 4 5 8 10 12 12 11 10 8 6 5 5 5 5 5 5 5 4 4 4 4 4 3 3 2 2 1 0 0 1 1 2 2 1 1 1 1 1 1 1 1 1
5 5 7 10 13 13 11 10 9 8 6 5 4 5 5 5 5 5 5 5 4 4 3 2 2 2 1 1 0 0 1 1 2 2 2 1 1 1 0 1 1 1 1
6 6 8 10 10 10 8 8 7 7 6 5 4 5 6 7 7 6 6 5 5 4 3 3 2 2 1 1 0 0 1 1 2 2 1 1 0 0 0 1 1 1 0
6 6 7 8 7 7 6 6 6 7 7 6 6 7 8 8 8 7 7 6 6 5 5 4 3 2 1 1 0 0 0 1 1 1 1 0 0 0 0 0 0 0 0
5 6 7 7 6 6 6 6 6 7 9 8 8 9 9 8 8 8 7 7 6 6 5 5 4 2 1 1 0 0 0 0 0 0 0 0 0 0 0 0 0 0 0
6 6 7 7 6 6 6 6 6 8 10 11 11 9 7 7 7 8 7 7 6 5 5 5 4 4 2 1 0 0 0 0 0 0 0 0 0 0 0 0 0 0 0
6 6 7 6 6 6 6 7 8 10 12 13 11 7 5 5 7 7 7 6 5 5 5 5 5 5 4 2 1 0 0 0 0 0 0 0 0 0 0 0 0 0 0
7 7 7 7 6 6 6 8 10 11 12 12 9 6 5 6 7 7 6 5 4 4 4 4 4 4 3 2 1 0 0 0 0 0 0 0 0 0 0 0 0 0 0
9 9 8 7 7 6 7 10 11 11 11 10 8 6 6 7 7 6 4 3 2 2 2 2 2 2 2 1 1 0 0 0 0 0 0 0 0 0 0 0 0 0 0

GEFSMW_con_maxscp_204.txt.gz
SCP
10 8 4 3 4 5 6 6 5 5 4 3 3 3 2 2 2 3 3 3 2 2 2 3 3 3 3 4 3 3 2 2 1 1 1 1 1 1 1 1 2 2 2
8 6 4 3 4 5 6 6 6 5 4 4 3 3 2 2 2 3 3 4 3 2 2 3 3 3 3 3 3 3 3 2 2 1 1 1 1 1 1 1 2 2 2
6 5 4 4 4 5 6 6 6 6 5 4 3 3 3 2 3 3 3 4 4 3 2 2 2 2 3 3 3 3 3 2 2 2 2 1 1 1 1 2 2 2 2
5 5 4 4 4 5 6 8 8 7 6 4 3 3 3 3 3 3 3 4 4 3 3 2 2 2 3 3 3 3 3 2 2 2 2 2 2 2 2 2 2 2 2
6 6 5 5 6 6 7 10 11 9 7 5 4 4 3 3 3 3 3 3 3 3 3 3 3 3 3 4 4 3 2 2 2 1 1 1 2 2 2 2 2 2 2
6 6 5 6 7 8 9 11 13 11 8 6 5 5 4 4 3 3 3 2 2 3 4 4 4 3 3 4 4 3 2 2 2 2 1 1 1 1 1 1 1 2 2
5 5 5 6 8 9 10 12 13 11 8 6 6 6 5 4 3 3 2 2 2 3 5 5 5 4 4 4 4 3 2 2 2 2 2 1 1 1 1 1 1 1 2
4 4 5 7 8 10 10 11 11 9 7 7 6 6 6 5 4 3 3 3 2 3 5 7 7 6 5 5 5 4 2 2 2 2 1 1 1 1 1 1 1 1 2
4 5 5 7 8 8 8 7 7 8 7 7 6 6 5 5 4 4 4 3 3 3 5 7 7 7 6 6 5 4 3 2 2 2 1 1 1 1 1 1 1 2 2
4 5 6 6 7 7 6 6 6 7 8 7 5 5 5 4 4 4 4 3 3 3 5 6 7 6 6 6 5 5 3 3 2 2 1 1 1 1 1 1 1 2 2
4 5 6 7 6 6 5 5 6 8 8 7 5 4 4 4 4 4 4 3 3 3 5 6 6 6 6 6 6 5 3 3 2 2 2 1 1 1 1 1 1 2 2
4 5 6 6 6 5 5 5 6 7 8 8 6 5 4 4 4 4 4 4 3 4 5 5 5 5 5 5 5 5 4 3 3 2 2 2 1 1 1 1 1 1 2
5 5 5 5 5 4 5 5 5 6 8 8 7 5 5 4 4 4 4 5 5 5 5 5 5 5 5 5 5 5 5 4 4 3 2 2 1 1 1 1 1 1 1
6 5 5 4 4 5 5 5 5 7 8 8 7 6 5 4 4 5 6 7 6 5 5 5 5 5 5 5 6 6 5 5 4 3 2 2 2 1 1 1 1 1 1
6 6 6 5 6 6 5 6 7 8 8 8 7 6 6 6 6 7 8 8 7 6 5 5 5 4 4 4 5 5 4 4 3 2 2 2 2 1 1 1 1 1 1
6 8 8 7 7 7 6 7 8 9 9 9 9 8 7 7 7 8 9 9 7 6 5 4 4 4 3 2 3 3 3 2 2 2 2 1 1 1 1 1 1 1 1
7 9 10 9 8 8 9 10 10 10 11 12 11 9 8 7 7 8 9 9 8 6 5 4 4 3 2 1 2 2 2 2 2 2 2 1 1 1 1 0 0 0 0
9 10 11 10 10 11 12 13 12 10 10 10 9 8 7 7 7 8 9 10 9 7 5 4 4 3 2 1 1 2 2 3 3 3 2 2 1 1 1 1 0 0 0
11 11 11 11 11 12 12 12 10 8 7 7 7 7 7 7 7 8 9 11 10 8 7 6 5 5 3 1 1 2 3 3 4 4 3 2 1 1 0 0 0 0 0
12 12 12 12 11 11 10 9 7 6 7 7 7 7 7 8 9 10 11 11 10 9 9 8 8 7 5 2 1 1 3 4 5 5 3 2 1 0 0 0 0 0 0
10 11 12 12 10 10 10 9 8 8 8 8 8 9 9 10 11 13 13 13 12 11 11 10 10 9 6 2 0 1 2 4 5 5 3 1 0 0 0 0 0 0 0
10 11 12 12 11 11 12 12 12 12 12 12 11 11 12 12 12 14 15 14 13 12 11 11 11 10 6 2 0 0 1 2 4 4 2 1 0 0 0 0 0 0 0
10 11 12 12 13 13 13 13 16 18 18 15 12 12 14 14 13 14 15 14 14 12 11 11 10 9 6 3 1 0 0 1 2 2 1 0 0 0 0 0 0 0 0
10 10 10 12 14 14 12 12 17 21 18 13 11 11 12 15 15 14 13 12 11 10 9 9 8 7 7 5 2 1 0 0 1 1 0 0 0 0 0 0 0 0 0
11 10 10 13 15 14 11 11 15 17 13 10 9 10 12 14 14 12 9 6 6 6 5 6 5 6 6 5 2 1 1 1 1 1 0 0 0 0 0 0 0 0 0
12 11 11 13 16 15 11 11 13 12 10 9 9 10 13 14 13 10 6 3 2 2 2 3 4 5 5 3 2 1 1 1 1 1 0 0 0 0 0 0 0 0 0

GEFSMW_con_maxscp_210.txt.gz
SCP
3 2 2 3 5 5 3 2 2 2 2 1 1 1 1 1 1 1 1 1 1 1 1 1 1 1 1 1 1 1 1 1 0 0 0 0 0 0 0 0 0 0 1
3 3 3 3 5 5 3 3 2 2 2 1 1 1 1 1 1 1 1 1 2 1 1 1 2 2 1 1 1 1 1 1 0 0 0 0 0 0 0 0 0 0 0
2 3 3 3 4 4 4 3 3 2 2 2 2 2 1 1 1 1 1 2 2 2 2 2 2 2 2 2 2 2 1 1 1 0 0 0 0 0 0 0 0 0 0
2 3 3 3 4 4 4 3 3 3 3 3 3 2 2 2 2 2 2 2 2 3 2 2 2 2 2 3 3 2 2 1 1 0 0 0 0 0 0 0 0 0 0
2 3 3 3 4 4 4 4 5 5 5 4 4 3 2 2 3 3 2 2 2 2 2 2 3 3 3 4 4 3 2 2 1 1 0 0 0 0 0 0 0 0 0
2 3 3 4 4 5 5 6 7 8 6 5 4 3 2 2 3 2 2 1 1 1 1 2 3 4 5 5 4 4 3 2 1 1 1 0 0 1 1 1 1 0 0
3 3 4 4 6 6 6 7 9 9 7 5 4 3 2 2 2 2 2 1 1 1 1 2 3 4 5 5 4 4 3 2 1 1 1 0 0 0 1 1 1 1 0
5 4 4 5 6 6 6 6 7 7 5 4 4 3 2 2 2 2 2 1 1 1 1 2 3 4 4 4 4 3 2 2 1 1 0 0 0 0 0 0 1 1 0
6 5 4 5 5 5 5 5 5 4 4 4 4 3 3 2 2 2 2 2 1 1 1 2 3 4 4 4 3 3 2 2 2 1 1 0 0 0 0 0 0 0 0
5 5 4 4 4 4 4 3 3 3 3 4 4 4 3 3 2 2 2 2 1 1 2 3 3 3 4 3 3 3 3 2 2 1 1 0 0 0 0 0 0 0 0
4 4 3 3 3 3 3 3 3 3 4 4 4 4 3 3 2 2 2 2 2 2 3 3 3 3 3 3 3 3 3 3 2 1 1 1 0 0 0 0 0 0 0
3 3 3 3 4 4 4 4 4 4 5 5 4 4 3 3 3 3 3 2 2 3 3 3 2 2 2 3 3 3 3 2 2 1 1 1 0 0 1 0 0 0 0
3 4 4 5 5 5 4 4 4 5 6 6 5 4 4 4 4 4 4 4 3 3 2 2 2 2 2 2 3 2 2 2 1 1 1 1 1 1 1 1 1 0 0
5 5 5 5 5 4 4 3 4 6 7 6 5 5 4 4 5 5 4 3 3 2 2 2 2 2 2 2 2 2 1 1 1 1 1 1 1 1 1 1 1 1 1
6 6 6 6 5 4 4 4 5 6 7 6 5 5 4 4 4 4 3 2 2 2 2 1 1 2 2 1 1 1 1 1 1 1 1 1 1 1 1 1 1 1 1
8 8 8 7 6 5 5 6 6 6 6 5 4 5 5 4 3 2 2 2 2 3 2 2 1 1 1 1 1 1 1 1 1 1 1 1 1 1 1 1 0 0 0
9 9 9 9 8 6 6 6 6 5 4 4 3 4 5 5 4 3 3 3 3 4 3 2 2 2 1 1 1 1 1 1 1 1 1 1 1 1 0 0 0 0 0
10 10 10 10 9 7 6 5 5 4 3 3 3 4 6 7 7 5 4 4 4 4 4 3 2 2 2 1 1 1 2 2 2 2 1 1 1 1 0 0 0 0 0
10 10 10 10 9 7 6 5 5 4 3 3 3 4 5 8 9 8 6 5 5 5 5 4 3 3 2 2 1 1 2 2 2 2 1 1 0 0 0 0 0 0 0
10 10 11 10 9 8 6 6 5 4 4 4 3 3 5 8 10 10 9 8 7 7 6 6 5 5 4 3 2 1 3 4 3 3 2 1 0 0 0 0 0 0 0
10 10 11 11 9 8 7 6 5 5 5 4 4 4 5 8 10 10 11 11 11 9 9 9 8 8 6 4 2 2 3 5 5 4 3 2 1 0 0 0 0 0 0
10 11 12 11 9 8 7 6 6 5 6 6 5 5 6 8 9 10 11 13 13 13 12 12 12 11 9 5 2 1 2 4 5 4 4 2 1 0 0 0 0 0 0
10 11 12 12 9 8 7 6 6 7 8 7 7 7 7 8 8 8 9 12 14 15 15 15 14 13 10 6 2 1 1 2 3 3 3 2 1 0 0 0 0 0 0
10 12 13 12 11 9 8 7 7 9 10 10 9 8 7 7 7 7 7 10 12 15 16 16 16 15 11 6 2 0 0 0 1 1 1 1 0 0 0 0 0 0 0
13 14 15 15 13 10 8 8 8 9 10 10 9 8 7 6 6 5 5 6 8 9 11 12 14 14 11 5 2 0 0 0 0 0 0 0 0 0 0 0 0 0 0
15 16 17 16 14 10 9 8 9 9 9 9 8 7 6 6 5 4 3 3 4 4 5 7 10 11 9 5 1 0 0 0 0 0 0 0 0 0 0 0 0 0 0

GEFSMW_con_maxscp_216.txt.gz
SCP
1 1 1 1 1 1 1 1 1 1 1 1 1 1 1 1 1 1 1 1 1 1 2 2 2 2 2 2 2 1 1 0 0 1 1 0 0 0 0 0 0 0 0
1 1 1 1 1 1 1 1 1 2 1 1 1 1 1 1 1 1 1 1 1 1 2 2 2 2 2 2 2 2 1 1 1 1 1 0 0 0 0 0 0 0 0
1 1 1 1 1 1 1 1 2 2 1 1 1 1 1 1 1 1 1 1 1 1 1 2 2 2 2 2 2 2 2 2 1 1 1 0 0 0 0 0 0 0 0
1 1 1 1 1 1 1 1 1 1 1 1 1 1 1 1 1 1 1 1 1 1 1 1 2 2 2 2 3 3 2 2 2 1 1 0 0 0 0 0 0 0 0
1 1 1 1 1 1 1 1 1 1 1 1 1 1 1 1 1 1 1 1 1 1 0 1 1 2 2 3 3 3 2 2 2 1 1 1 0 0 0 0 0 0 0
1 1 1 1 1 1 1 1 1 1 1 1 1 1 1 1 1 1 1 1 1 0 0 1 1 1 2 3 3 3 3 2 2 2 1 1 0 0 0 0 0 0 0
1 1 1 2 2 2 2 1 2 2 1 1 1 1 1 1 1 1 1 1 1 1 1 0 1 1 2 3 3 3 3 3 3 2 1 1 1 0 0 0 0 0 0
1 1 1 2 2 2 2 2 2 2 1 1 1 1 1 1 1 1 1 1 1 1 1 1 1 2 3 3 3 3 3 3 3 2 2 1 1 0 0 0 0 0 0
1 1 1 2 2 2 2 2 2 2 1 1 1 2 2 2 2 2 1 1 1 1 1 2 2 3 3 3 3 3 3 3 3 2 2 1 1 0 0 0 0 0 0
1 1 1 1 2 2 2 2 2 2 1 1 2 2 2 2 2 2 2 1 1 1 2 3 3 3 3 2 2 2 3 3 3 2 1 1 1 0 0 0 0 0 0
1 2 1 1 1 1 1 1 1 2 2 2 2 2 2 2 2 2 2 2 2 2 2 2 2 2 2 2 2 1 2 2 2 1 1 1 0 0 0 0 0 0 0
2 2 2 1 1 1 1 1 1 2 2 2 2 2 2 2 2 2 2 3 3 2 2 2 1 1 1 1 1 1 1 1 1 1 1 1 1 1 1 1 1 1 1
3 2 2 1 1 1 1 1 1 2 2 2 3 3 3 3 3 3 3 3 2 2 2 1 1 1 1 1 1 0 0 0 0 0 1 1 1 1 1 1 1 1 1
2 2 1 1 1 1 1 1 1 2 2 3 3 3 3 3 3 3 3 2 2 2 1 1 1 1 1 1 1 1 1 1 1 1 1 1 1 1 1 1 1 1 1
1 1 1 1 1 1 1 2 2 2 2 3 3 3 3 3 3 3 2 2 2 1 1 1 1 1 1 0 1 1 1 1 1 1 1 1 1 1 1 1 1 1 1
2 2 2 2 2 2 2 2 2 2 2 2 3 3 3 3 3 3 2 2 2 2 2 2 1 1 1 1 1 1 1 1 1 1 1 1 1 1 1 1 1 1 1
3 3 3 3 3 4 4 3 3 3 3 3 3 3 3 3 3 2 2 2 2 2 2 2 2 1 1 1 1 1 1 1 2 2 2 1 1 1 1 1 1 0 0
4 4 4 4 4 4 4 4 4 5 5 4 3 3 3 3 2 2 2 2 3 3 4 3 3 2 2 1 1 1 2 2 2 2 2 2 2 2 2 2 1 1 0
5 5 5 4 4 4 4 4 5 6 6 5 4 4 4 3 2 2 2 2 3 4 5 5 4 3 2 2 2 2 3 3 3 4 4 3 3 3 2 2 2 1 1
8 8 7 5 4 5 4 4 5 5 5 5 4 4 4 4 3 3 3 3 4 5 6 6 5 4 4 4 3 3 4 5 5 6 6 5 4 3 2 3 3 2 1
11 10 8 6 6 6 6 5 5 5 5 5 5 5 4 4 4 4 3 3 4 6 6 7 6 6 6 5 4 4 5 6 7 8 8 8 6 3 2 2 3 2 1
13 11 9 8 8 8 7 6 6 6 7 7 6 5 5 5 5 4 4 4 5 6 7 7 7 7 7 7 6 4 4 5 7 8 9 9 7 3 1 1 2 1 1
13 11 8 7 8 9 8 7 8 9 9 8 7 6 5 5 5 4 4 4 5 6 7 8 7 7 7 8 7 5 4 3 5 7 7 7 5 3 1 1 1 0 0
13 10 8 6 6 7 8 7 7 8 7 6 6 6 6 6 5 4 3 4 5 6 7 8 7 6 6 7 6 6 5 4 5 6 6 5 4 3 3 2 1 0 0
12 10 8 6 5 6 7 7 6 5 5 5 5 6 7 6 4 3 2 3 4 5 7 7 5 4 4 4 3 3 4 5 5 5 6 5 4 4 4 3 1 0 0
11 9 8 6 5 5 7 7 5 5 5 5 6 6 7 6 3 2 2 2 3 4 6 6 4 2 2 1 1 1 2 3 5 5 5 6 5 5 5 4 2 0 0